PGT70H LTFJ-LTFH

Flight info

Callsign PGT70H
Flight time N/A
Altitude 35000
Route VICEN UT380 ASMAP UL333 LATGA UT363 ESB UT364 ILHAN UW71 HAVZA
Aircraft A21N/M-SDE2E3FGHIRWXY/LB1

Departure

Time 2026-05-07 11:51
Airport Istanbul Sabiha Gökçen International Airport (LTFJ)

Arrival

Time N/A
Airport Samsun-Çarşamba Airport (LTFH)
Time Latitude Longitude Altitude Speed Heading
2026-05-07 11:28 40.90529 29.31877 323 ft 0 kts 154°
2026-05-07 11:43 40.90535 29.31872 325 ft 4 kts 154°
2026-05-07 11:43 40.90559 29.31855 324 ft 4 kts 143°
2026-05-07 11:43 40.90577 29.31831 325 ft 4 kts 118°
2026-05-07 11:43 40.90582 29.31801 324 ft 4 kts 71°
2026-05-07 11:44 40.90578 29.31788 324 ft 1 kts 63°
2026-05-07 11:47 40.90579 29.31789 324 ft 1 kts 63°
2026-05-07 11:47 40.90586 29.31810 323 ft 4 kts 66°
2026-05-07 11:48 40.90592 29.31853 323 ft 7 kts 68°
2026-05-07 11:48 40.90598 29.31928 326 ft 10 kts 128°
2026-05-07 11:48 40.90532 29.31970 326 ft 11 kts 158°
2026-05-07 11:48 40.90482 29.32048 326 ft 13 kts 80°
2026-05-07 11:49 40.90527 29.32156 326 ft 14 kts 78°
2026-05-07 11:49 40.90567 29.32284 326 ft 16 kts 63°
2026-05-07 11:49 40.90578 29.32421 326 ft 17 kts 143°
2026-05-07 11:49 40.90474 29.32493 325 ft 14 kts 156°
2026-05-07 11:50 40.90410 29.32430 324 ft 13 kts 243°
2026-05-07 11:50 40.90366 29.32306 323 ft 26 kts 245°
2026-05-07 11:50 40.90162 29.31754 324 ft 105 kts 244°
2026-05-07 11:50 40.89742 29.30620 331 ft 165 kts 244°
2026-05-07 11:51 40.89236 29.29257 962 ft 168 kts 243°
2026-05-07 11:51 40.88713 29.27844 1708 ft 176 kts 245°
2026-05-07 11:51 40.88166 29.26322 2276 ft 191 kts 246°
2026-05-07 11:51 40.87561 29.24626 2720 ft 219 kts 245°
2026-05-07 11:52 40.86874 29.22722 3276 ft 237 kts 246°
2026-05-07 11:52 40.86152 29.20722 4068 ft 246 kts 245°
2026-05-07 11:52 40.85105 29.18873 4766 ft 259 kts 221°
2026-05-07 11:52 40.83477 29.17776 5538 ft 270 kts 195°
2026-05-07 11:53 40.81580 29.17761 6327 ft 280 kts 168°
2026-05-07 11:53 40.79822 29.18939 7068 ft 289 kts 138°
2026-05-07 11:53 40.78666 29.21099 7839 ft 293 kts 108°
2026-05-07 11:53 40.78247 29.23728 8668 ft 294 kts 94°
2026-05-07 11:54 40.78026 29.26419 9516 ft 296 kts 93°
2026-05-07 11:54 40.77798 29.29141 10311 ft 302 kts 94°
2026-05-07 11:54 40.77536 29.31981 10698 ft 322 kts 95°
2026-05-07 11:54 40.77242 29.34953 11122 ft 337 kts 95°
2026-05-07 11:55 40.76915 29.38090 11835 ft 344 kts 96°
2026-05-07 11:55 40.76583 29.41184 12612 ft 347 kts 96°
2026-05-07 11:55 40.76359 29.44364 13383 ft 349 kts 86°
2026-05-07 11:55 40.76518 29.47567 14133 ft 352 kts 82°
2026-05-07 11:56 40.76734 29.50795 14811 ft 355 kts 82°
2026-05-07 11:56 40.76943 29.54063 15480 ft 360 kts 82°
2026-05-07 11:56 40.77134 29.57363 16148 ft 364 kts 82°
2026-05-07 11:56 40.77263 29.59625 16587 ft 366 kts 82°
2026-05-07 11:57 40.77519 29.64097 17468 ft 371 kts 82°
2026-05-07 11:57 40.77644 29.66354 17889 ft 374 kts 82°
2026-05-07 11:57 40.77835 29.69790 18522 ft 378 kts 82°
2026-05-07 11:57 40.78028 29.73282 19062 ft 382 kts 81°
2026-05-07 11:58 40.78224 29.76789 19597 ft 386 kts 81°
2026-05-07 11:58 40.78425 29.80353 20048 ft 393 kts 81°
2026-05-07 11:58 40.78624 29.84002 20324 ft 406 kts 82°
2026-05-07 11:58 40.78829 29.87777 20530 ft 418 kts 82°
2026-05-07 11:59 40.79041 29.91664 20715 ft 430 kts 82°
2026-05-07 11:59 40.79258 29.95652 20888 ft 441 kts 82°
2026-05-07 11:59 40.79471 29.99735 21051 ft 451 kts 82°
2026-05-07 11:59 40.79675 30.03919 21209 ft 461 kts 82°
2026-05-07 12:00 40.79894 30.08188 21349 ft 470 kts 82°
2026-05-07 12:00 40.80121 30.12457 21645 ft 477 kts 82°
2026-05-07 12:00 40.80349 30.16844 22034 ft 480 kts 82°
2026-05-07 12:00 40.80574 30.21266 22422 ft 484 kts 82°
2026-05-07 12:01 40.80798 30.25721 22838 ft 487 kts 82°
2026-05-07 12:01 40.81011 30.30195 23235 ft 490 kts 82°
2026-05-07 12:01 40.81229 30.34697 23601 ft 493 kts 82°
2026-05-07 12:01 40.81445 30.39235 23916 ft 496 kts 82°
2026-05-07 12:02 40.81663 30.43786 24218 ft 498 kts 82°
2026-05-07 12:02 40.81887 30.48348 24591 ft 498 kts 82°
2026-05-07 12:02 40.82112 30.52915 25009 ft 497 kts 82°
2026-05-07 12:02 40.82337 30.57461 25402 ft 497 kts 82°
2026-05-07 12:03 40.82556 30.62012 25814 ft 496 kts 82°
2026-05-07 12:03 40.82766 30.66569 26215 ft 496 kts 82°
2026-05-07 12:03 40.82965 30.71111 26620 ft 495 kts 82°
2026-05-07 12:03 40.83163 30.75641 27025 ft 494 kts 82°
2026-05-07 12:04 40.83380 30.80165 27413 ft 493 kts 81°
2026-05-07 12:04 40.83593 30.84626 27779 ft 493 kts 81°
2026-05-07 12:04 40.83804 30.89155 28153 ft 493 kts 82°
2026-05-07 12:04 40.84003 30.93677 28509 ft 494 kts 82°
2026-05-07 12:05 40.84203 30.98203 28930 ft 492 kts 81°
2026-05-07 12:05 40.84399 31.02715 29326 ft 492 kts 81°
2026-05-07 12:05 40.84599 31.07219 29683 ft 491 kts 81°
2026-05-07 12:05 40.84811 31.11722 30054 ft 491 kts 81°
2026-05-07 12:06 40.85010 31.16232 30401 ft 491 kts 81°
2026-05-07 12:06 40.85195 31.20733 30751 ft 490 kts 82°
2026-05-07 12:06 40.85373 31.25221 31094 ft 489 kts 82°
2026-05-07 12:06 40.85544 31.29707 31422 ft 488 kts 82°
2026-05-07 12:07 40.85714 31.34179 31741 ft 487 kts 82°
2026-05-07 12:07 40.85894 31.38643 32079 ft 485 kts 82°
2026-05-07 12:07 40.86063 31.43043 32393 ft 485 kts 82°
2026-05-07 12:07 40.86240 31.47480 32712 ft 484 kts 82°
2026-05-07 12:08 40.86414 31.51912 33033 ft 482 kts 81°
2026-05-07 12:08 40.86591 31.56346 33325 ft 481 kts 82°
2026-05-07 12:08 40.86762 31.60758 33622 ft 480 kts 82°
2026-05-07 12:08 40.86930 31.65157 33933 ft 479 kts 82°
2026-05-07 12:09 40.87101 31.69555 34191 ft 478 kts 81°
2026-05-07 12:09 40.87273 31.73946 34387 ft 478 kts 81°
2026-05-07 12:09 40.87446 31.78344 34581 ft 478 kts 82°
2026-05-07 12:09 40.87608 31.82720 34767 ft 477 kts 82°
2026-05-07 12:10 40.87764 31.87092 34934 ft 477 kts 82°
2026-05-07 12:10 40.87913 31.91488 35091 ft 478 kts 82°
2026-05-07 12:10 40.88057 31.95883 35188 ft 478 kts 82°
2026-05-07 12:11 40.88372 32.04584 35174 ft 477 kts 82°
2026-05-07 12:11 40.88668 32.13336 35157 ft 477 kts 82°
2026-05-07 12:12 40.88964 32.22092 35153 ft 477 kts 82°
2026-05-07 12:12 40.89264 32.30860 35148 ft 477 kts 82°
2026-05-07 12:13 40.89530 32.39634 35150 ft 479 kts 82°
2026-05-07 12:13 40.89814 32.48423 35174 ft 478 kts 82°
2026-05-07 12:14 40.90077 32.57186 35164 ft 476 kts 83°
2026-05-07 12:14 40.90345 32.65933 35148 ft 476 kts 83°
2026-05-07 12:15 40.90557 32.74558 35129 ft 460 kts 82°
2026-05-07 12:15 40.90779 32.82779 35117 ft 441 kts 82°
2026-05-07 12:16 40.90992 32.90702 35128 ft 422 kts 81°
2026-05-07 12:16 40.91185 32.98299 35115 ft 404 kts 80°
2026-05-07 12:17 40.91361 33.05541 35072 ft 386 kts 80°
2026-05-07 12:17 40.91460 33.09106 34599 ft 390 kts 79°
2026-05-07 12:17 40.91586 33.12706 34173 ft 394 kts 79°
2026-05-07 12:17 40.91727 33.16345 33730 ft 398 kts 79°
2026-05-07 12:18 40.91879 33.20012 33321 ft 400 kts 80°
2026-05-07 12:18 40.92038 33.23699 32962 ft 403 kts 80°
2026-05-07 12:18 40.92198 33.27401 32611 ft 404 kts 80°
2026-05-07 12:18 40.92357 33.31121 32289 ft 406 kts 81°
2026-05-07 12:19 40.92510 33.34828 31701 ft 415 kts 82°
2026-05-07 12:19 40.92590 33.38712 30789 ft 427 kts 85°
2026-05-07 12:19 40.92622 33.42669 29947 ft 436 kts 88°
2026-05-07 12:19 40.92610 33.46744 29082 ft 449 kts 88°
2026-05-07 12:20 40.92630 33.50916 28263 ft 458 kts 87°
2026-05-07 12:20 40.92693 33.55121 27483 ft 456 kts 86°
2026-05-07 12:20 40.92772 33.59297 26709 ft 451 kts 86°
2026-05-07 12:20 40.92859 33.63423 25955 ft 445 kts 86°
2026-05-07 12:21 40.92940 33.67498 25225 ft 440 kts 86°
2026-05-07 12:21 40.93022 33.71525 24515 ft 435 kts 86°
2026-05-07 12:21 40.93090 33.75497 23814 ft 430 kts 86°
2026-05-07 12:21 40.93161 33.79420 23008 ft 424 kts 86°
2026-05-07 12:22 40.93236 33.83301 22198 ft 419 kts 86°
2026-05-07 12:22 40.93633 33.87073 21419 ft 412 kts 71°
2026-05-07 12:22 40.94779 33.90487 20664 ft 404 kts 56°
2026-05-07 12:22 40.96510 33.93309 19932 ft 397 kts 41°
2026-05-07 12:23 40.98684 33.95489 19204 ft 390 kts 27°
2026-05-07 12:23 41.01159 33.96901 18098 ft 389 kts 13°
2026-05-07 12:23 41.03835 33.97443 16603 ft 391 kts 359°
2026-05-07 12:23 41.06550 33.97100 15129 ft 392 kts 345°
2026-05-07 12:24 41.09167 33.96105 13695 ft 393 kts 340°
2026-05-07 12:24 41.11776 33.94982 12138 ft 394 kts 340°
2026-05-07 12:24 41.14388 33.93875 10736 ft 393 kts 341°
2026-05-07 12:24 41.16955 33.92816 9933 ft 376 kts 341°
2026-05-07 12:25 41.19391 33.91835 9419 ft 354 kts 342°
2026-05-07 12:25 41.21650 33.90930 9046 ft 334 kts 341°
2026-05-07 12:25 41.23835 33.90058 8785 ft 321 kts 341°
2026-05-07 12:25 41.25933 33.89212 8527 ft 310 kts 342°
2026-05-07 12:26 41.27966 33.88390 8273 ft 300 kts 342°
2026-05-07 12:26 41.29932 33.87595 8005 ft 291 kts 342°
2026-05-07 12:26 41.31843 33.86825 7742 ft 282 kts 341°
2026-05-07 12:26 41.33701 33.86073 7475 ft 274 kts 342°
2026-05-07 12:27 41.35507 33.85343 7227 ft 269 kts 341°
2026-05-07 12:27 41.37294 33.84624 6976 ft 268 kts 341°
2026-05-07 12:27 41.39072 33.83912 6738 ft 266 kts 341°
2026-05-07 12:27 41.40815 33.83212 6506 ft 265 kts 341°
2026-05-07 12:28 41.42602 33.82489 6248 ft 263 kts 341°
2026-05-07 12:28 41.44309 33.81792 5988 ft 257 kts 341°
2026-05-07 12:28 41.45994 33.81099 5728 ft 249 kts 341°
2026-05-07 12:28 41.47495 33.80077 5448 ft 239 kts 313°
2026-05-07 12:29 41.48256 33.78228 5196 ft 224 kts 275°
2026-05-07 12:29 41.47960 33.76296 5021 ft 213 kts 233°
2026-05-07 12:29 41.46812 33.75250 4951 ft 195 kts 190°
2026-05-07 12:29 41.45602 33.75632 4922 ft 174 kts 139°
2026-05-07 12:30 41.45113 33.76989 4939 ft 160 kts 83°
2026-05-07 12:30 41.45254 33.78446 4991 ft 160 kts 97°
2026-05-07 12:30 41.44818 33.79779 4998 ft 157 kts 113°
2026-05-07 12:30 41.44284 33.81025 4960 ft 155 kts 140°
2026-05-07 12:31 41.43295 33.81449 4966 ft 152 kts 184°
2026-05-07 12:31 41.42252 33.81280 4975 ft 151 kts 191°
2026-05-07 12:31 41.41214 33.81078 4974 ft 150 kts 189°
2026-05-07 12:31 41.40186 33.80887 4961 ft 150 kts 189°
2026-05-07 12:32 41.39155 33.80680 4848 ft 149 kts 188°
2026-05-07 12:32 41.38127 33.80513 4709 ft 149 kts 183°
2026-05-07 12:32 41.37097 33.80412 4442 ft 149 kts 181°
2026-05-07 12:32 41.36070 33.80345 4149 ft 147 kts 184°
2026-05-07 12:33 41.34047 33.79982 3818 ft 147 kts 187°
2026-05-07 12:33 41.33040 33.79819 3620 ft 147 kts 186°
2026-05-07 12:33 41.32032 33.79683 3476 ft 135 kts 189°
2026-05-07 12:34 41.31405 33.79618 3493 ft 42 kts 168°
2026-05-07 12:34 41.31232 33.79696 3509 ft 26 kts 165°
2026-05-07 12:34 41.31048 33.79713 3514 ft 27 kts 190°
2026-05-07 12:34 41.30885 33.79591 3522 ft 28 kts 230°
2026-05-07 12:35 41.30778 33.79464 3520 ft 0 kts 211°